FW5435 Weather Reports


Display with metric or nautical units.
time (UTC)temp
F
wind
direction
speed
MPH
gust
MPH
rain 1hr
in
rain 24hr
in
rain mn
in
humidity
%
barometer
mb
20260502221543 56 0 0.0 0.0 0.00 0.00 0.00 84 1010.9
20260502221037 56 0 0.0 0.0 0.00 0.00 0.00 84 1010.8
20260502220533 56 0 0.0 0.0 0.00 0.00 0.00 84 1010.7
20260502220048 56 0 0.0 0.0 0.00 0.00 0.00 84 1010.7
20260502215534 57 0 0.0 0.0 0.00 0.00 0.00 84 1010.6
20260502215038 57 0 0.0 0.0 0.00 0.00 0.00 84 1010.5
20260502214552 57 0 0.0 0.0 0.00 0.00 0.00 84 1010.5
20260502214039 57 0 0.0 0.0 0.00 0.00 0.00 84 1010.4
20260502213534 57 0 0.0 0.0 0.00 0.00 0.00 83 1010.4
20260502213049 57 0 0.0 0.0 0.00 0.00 0.00 84 1010.5
20260502212534 57 0 0.0 0.0 0.00 0.00 0.00 83 1010.6
20260502212034 57 0 0.0 0.0 0.00 0.00 0.00 85 1010.6
20260502211550 56 0 0.0 0.0 0.00 0.00 0.00 85 1010.6
20260502211034 56 0 0.0 0.0 0.00 0.00 0.00 85 1010.4
20260502210533 56 0 0.0 0.0 0.00 0.00 0.00 85 1010.5
20260502210042 56 0 0.0 0.0 0.00 0.00 0.00 86 1010.6
20260502205535 56 0 0.0 0.0 0.00 0.00 0.00 85 1010.6
20260502205035 56 0 0.0 0.0 0.00 0.00 0.00 84 1010.6
20260502204542 56 0 0.0 1.0 0.00 0.00 0.00 85 1010.6
20260502204034 56 0 0.0 1.0 0.00 0.00 0.00 85 1010.7
20260502203532 56 0 0.0 1.0 0.00 0.00 0.00 85 1010.6
20260502203107 56 0 0.0 0.0 0.00 0.00 0.00 85 1010.7
20260502202535 56 0 0.0 0.0 0.00 0.00 0.00 85 1010.7
20260502202034 56 0 0.0 0.0 0.00 0.00 0.00 85 1010.7
20260502201548 56 0 0.0 0.0 0.00 0.00 0.00 85 1010.6
20260502201036 56 0 0.0 1.0 0.00 0.00 0.00 85 1010.4
20260502200534 56 0 0.0 1.0 0.00 0.00 0.00 85 1010.5
20260502200043 55 0 0.0 2.0 0.00 0.00 0.00 86 1010.5
20260502195533 55 0 0.0 2.0 0.00 0.00 0.00 87 1010.7
20260502195034 55 0 0.0 2.0 0.00 0.00 0.00 87 1010.8
20260502194544 55 0 0.0 0.0 0.00 0.00 0.00 87 1010.8
20260502194033 55 0 0.0 0.0 0.00 0.00 0.00 89 1011.0
20260502193533 55 0 0.0 0.0 0.00 0.00 0.00 89 1011.0
20260502193053 55 0 0.0 0.0 0.00 0.00 0.00 89 1011.1
20260502192535 55 0 0.0 0.0 0.00 0.00 0.00 89 1011.3
20260502192035 54 0 0.0 0.0 0.00 0.00 0.00 88 1011.3
20260502191541 54 0 0.0 0.0 0.00 0.00 0.00 89 1011.2
20260502191035 54 0 0.0 0.0 0.00 0.00 0.00 89 1011.2
20260502190535 54 0 0.0 0.0 0.00 0.00 0.00 89 1011.3
20260502190047 54 0 0.0 0.0 0.00 0.00 0.00 90 1011.4
20260502185532 54 0 0.0 0.0 0.00 0.00 0.00 90 1011.3
20260502185035 54 0 0.0 0.0 0.00 0.00 0.00 90 1011.4
20260502184545 54 0 0.0 0.0 0.00 0.00 0.00 91 1011.5
20260502184037 53 0 0.0 0.0 0.00 0.00 0.00 91 1011.6
20260502183535 53 0 0.0 0.0 0.00 0.00 0.00 91 1011.6
20260502183043 53 0 0.0 0.0 0.00 0.00 0.00 91 1011.6
20260502182536 54 0 0.0 0.0 0.00 0.00 0.00 91 1011.6
20260502182036 54 0 0.0 0.0 0.00 0.00 0.00 92 1011.6
20260502181605 54 0 0.0 0.0 0.00 0.00 0.00 92 1011.7
20260502181038 53 0 0.0 0.0 0.00 0.00 0.00 92 1011.9
20260502180537 53 0 0.0 0.0 0.00 0.00 0.00 92 1012.0
20260502164039 52 0 0.0 2.0 0.00 0.00 0.00 92 1012.5
20260502163535 53 0 0.0 3.0 0.00 0.00 0.00 92 1012.6
20260502163047 53 0 0.0 3.0 0.00 0.00 0.00 93 1012.6
20260502162535 53 0 0.0 3.0 0.00 0.00 0.00 93 1012.5
20260502162035 53 0 0.0 0.0 0.00 0.00 0.00 93 1012.8
20260502161544 52 0 0.0 0.0 0.00 0.00 0.00 93 1012.8
20260502161034 53 0 0.0 0.0 0.00 0.00 0.00 93 1013.1
20260502160536 52 0 0.0 0.0 0.00 0.00 0.00 93 1013.1
20260502152035 53 0 0.0 0.0 0.00 0.00 0.00 92 1012.6
20260502151554 53 0 0.0 0.0 0.00 0.00 0.00 92 1012.8
20260502151035 53 0 0.0 0.0 0.00 0.00 0.00 92 1012.8
20260502150536 53 0 0.0 0.0 0.00 0.00 0.00 93 1012.7
20260502130534 52 0 0.0 0.0 0.00 0.00 0.00 92 1012.0
20260502123534 52 0 0.0 2.0 0.00 0.00 0.00 92 1012.0
20260502123052 52 259 0.0 2.0 0.00 0.00 0.00 92 1011.8
20260502122535 52 0 0.0 0.0 0.00 0.00 0.00 91 1011.6
20260502122035 52 0 0.0 0.0 0.00 0.00 0.00 92 1011.6
20260502121547 52 0 0.0 0.0 0.00 0.00 0.00 92 1011.6
20260502121035 52 0 0.0 0.0 0.00 0.00 0.00 92 1011.6
20260502120537 52 0 0.0 0.0 0.00 0.00 0.00 92 1011.6
20260502115534 51 0 0.0 0.0 0.00 0.00 0.00 91 1011.7
20260502115037 51 0 0.0 0.0 0.00 0.00 0.00 91 1011.8
20260502114554 51 0 0.0 0.0 0.00 0.00 0.00 91 1011.7
20260502114034 52 0 0.0 0.0 0.00 0.00 0.00 91 1011.8
20260502113534 52 0 0.0 0.0 0.00 0.00 0.00 91 1011.8
20260502113054 52 0 0.0 0.0 0.00 0.00 0.00 92 1011.7
20260502112535 52 0 0.0 0.0 0.00 0.00 0.00 92 1011.8
20260502112035 52 0 0.0 0.0 0.00 0.00 0.00 92 1011.8
20260502111550 52 0 0.0 0.0 0.00 0.00 0.00 92 1011.9
20260502111035 52 0 0.0 0.0 0.00 0.00 0.00 92 1012.0
20260502110535 52 0 0.0 0.0 0.00 0.00 0.00 92 1012.1
20260502110045 52 0 0.0 0.0 0.00 0.00 0.00 92 1011.9
20260502105535 52 0 0.0 0.0 0.00 0.00 0.00 92 1012.0
20260502105036 52 0 0.0 0.0 0.00 0.00 0.00 92 1011.9
20260502104551 52 0 0.0 0.0 0.00 0.00 0.00 92 1011.9
20260502104034 52 0 0.0 0.0 0.00 0.00 0.00 92 1012.0
20260502103538 52 0 0.0 0.0 0.00 0.00 0.00 92 1012.0
20260502103050 52 0 0.0 0.0 0.00 0.00 0.00 92 1012.0
20260502102534 52 0 0.0 0.0 0.00 0.00 0.00 92 1012.0
20260502102035 52 0 0.0 0.0 0.00 0.00 0.00 92 1012.0
20260502101551 52 0 0.0 2.0 0.00 0.00 0.00 92 1012.0
20260502101034 52 0 0.0 2.0 0.00 0.00 0.00 92 1012.0
20260502100534 52 0 1.0 2.0 0.00 0.00 0.00 92 1012.1
20260502091034 52 0 0.0 0.0 0.00 0.00 0.00 92 1012.0
20260502090536 52 0 0.0 0.0 0.00 0.00 0.00 91 1012.0
20260502071033 51 0 0.0 0.0 0.00 0.00 0.00 91 1010.8
20260502070534 52 0 0.0 0.0 0.00 0.00 0.00 91 1010.9
20260502070050 52 0 0.0 0.0 0.00 0.00 0.00 91 1010.9
20260502065534 52 0 0.0 0.0 0.00 0.00 0.00 91 1010.9
20260502065036 52 0 0.0 0.0 0.00 0.00 0.00 91 1011.0
20260502064557 52 0 0.0 0.0 0.00 0.00 0.00 91 1010.9
20260502064035 52 0 0.0 0.0 0.00 0.00 0.00 91 1011.0
20260502063534 52 0 0.0 0.0 0.00 0.00 0.00 90 1011.1
20260502063046 52 0 0.0 0.0 0.00 0.00 0.00 90 1011.3
20260502062533 52 0 0.0 0.0 0.00 0.00 0.00 90 1011.2
20260502062033 52 0 0.0 0.0 0.00 0.00 0.00 90 1011.3
20260502061545 52 0 0.0 0.0 0.00 0.00 0.00 90 1011.3
20260502061034 52 0 0.0 0.0 0.00 0.00 0.00 90 1011.3
20260502060533 52 0 0.0 0.0 0.00 0.00 0.00 90 1011.3
20260502060049 52 0 0.0 0.0 0.00 0.00 0.00 90 1011.2
20260502055534 52 0 0.0 0.0 0.00 0.00 0.00 90 1011.3
20260502055034 52 0 0.0 0.0 0.00 0.00 0.00 90 1011.3
20260502054553 52 0 0.0 0.0 0.00 0.00 0.00 90 1011.3
20260502054037 52 0 0.0 0.0 0.00 0.00 0.00 90 1011.4
20260502053533 52 0 0.0 0.0 0.00 0.00 0.00 90 1011.6
20260502053042 52 0 0.0 0.0 0.00 0.00 0.00 90 1011.5
20260502052534 52 0 0.0 0.0 0.00 0.00 0.00 90 1011.7
20260502052037 52 0 0.0 0.0 0.00 0.00 0.00 90 1011.8
20260502051549 52 0 0.0 0.0 0.00 0.00 0.00 90 1011.9
20260502051034 52 0 0.0 0.0 0.00 0.00 0.00 90 1011.8
20260502050536 52 0 0.0 0.0 0.00 0.00 0.00 90 1011.8
20260502050043 52 0 0.0 0.0 0.00 0.00 0.00 90 1011.9
20260502045534 52 0 0.0 0.0 0.00 0.00 0.00 90 1011.9
20260502045034 52 0 0.0 0.0 0.00 0.00 0.00 90 1011.9
20260502044543 52 0 0.0 0.0 0.00 0.00 0.00 90 1012.0
20260502044033 52 0 0.0 0.0 0.00 0.00 0.00 89 1011.9
20260502043533 52 0 0.0 0.0 0.00 0.00 0.00 89 1011.9
20260502043047 52 0 0.0 0.0 0.00 0.00 0.00 89 1012.1
20260502042534 53 0 0.0 0.0 0.00 0.00 0.00 89 1012.0
20260502042033 53 0 0.0 0.0 0.00 0.00 0.00 89 1012.0
20260502041544 53 0 0.0 0.0 0.00 0.00 0.00 89 1012.1
20260502041035 53 0 0.0 0.0 0.00 0.00 0.00 89 1012.2
20260502040534 53 0 0.0 0.0 0.00 0.00 0.00 88 1012.3
20260502040054 53 0 0.0 0.0 0.00 0.00 0.00 88 1012.2
20260502035534 53 0 0.0 0.0 0.00 0.00 0.00 88 1012.2
20260502035034 53 0 0.0 0.0 0.00 0.00 0.00 88 1012.3
20260502034544 53 0 0.0 0.0 0.00 0.00 0.00 88 1012.2
20260502034034 53 0 0.0 0.0 0.00 0.00 0.00 88 1012.2
20260502033535 53 0 0.0 0.0 0.00 0.00 0.00 88 1012.2
20260502033047 53 0 0.0 0.0 0.00 0.00 0.00 87 1012.2
20260502032535 54 0 0.0 0.0 0.00 0.00 0.00 87 1012.3
20260502032036 54 0 0.0 0.0 0.00 0.00 0.00 87 1012.3
20260502031557 54 0 0.0 0.0 0.00 0.00 0.00 87 1012.3
20260502031036 54 0 0.0 0.0 0.00 0.00 0.00 87 1012.3
20260502030535 54 0 0.0 0.0 0.00 0.00 0.00 87 1012.5
20260502030043 54 0 0.0 0.0 0.00 0.00 0.00 87 1012.6
20260502025537 54 0 0.0 0.0 0.00 0.00 0.00 87 1012.6
20260502025035 54 0 0.0 0.0 0.00 0.00 0.00 87 1012.6
20260502024547 54 0 0.0 0.0 0.00 0.00 0.00 87 1012.5
20260502024035 54 0 0.0 0.0 0.00 0.00 0.00 87 1012.5
20260502023536 54 0 0.0 0.0 0.00 0.00 0.00 87 1012.6
20260502023050 54 0 0.0 0.0 0.00 0.00 0.00 87 1012.5
20260502022536 54 0 0.0 0.0 0.00 0.00 0.00 86 1012.6
20260502022036 54 0 0.0 0.0 0.00 0.00 0.00 86 1012.7
20260502021544 54 0 0.0 0.0 0.00 0.00 0.00 86 1012.7
20260502021036 54 0 0.0 0.0 0.00 0.00 0.00 86 1012.7
20260502020536 54 0 0.0 0.0 0.00 0.00 0.00 87 1012.7
20260502020058 54 0 0.0 0.0 0.00 0.00 0.00 87 1012.7
20260502015536 54 0 0.0 0.0 0.00 0.00 0.00 86 1012.7
20260502015036 54 0 0.0 0.0 0.00 0.00 0.00 86 1012.6
20260502014550 54 0 0.0 0.0 0.00 0.00 0.00 86 1012.5
20260502014035 54 0 0.0 0.0 0.00 0.00 0.00 85 1012.6
20260502013536 54 0 0.0 0.0 0.00 0.00 0.00 85 1012.5
20260502013040 54 0 0.0 0.0 0.00 0.00 0.00 85 1012.4
20260502012535 54 0 0.0 0.0 0.00 0.00 0.00 86 1012.5
20260502012038 54 0 0.0 0.0 0.00 0.00 0.00 85 1012.6
20260502011546 54 0 0.0 0.0 0.00 0.00 0.00 85 1012.7
20260502011040 54 0 0.0 0.0 0.00 0.00 0.00 85 1012.5
20260502010535 54 0 0.0 0.0 0.00 0.00 0.00 85 1012.2
20260502010043 54 0 0.0 0.0 0.00 0.00 0.00 84 1012.1
20260502005535 54 0 0.0 0.0 0.00 0.00 0.00 84 1012.0
20260502005037 54 0 0.0 0.0 0.00 0.00 0.00 84 1012.1
20260502004555 54 0 0.0 0.0 0.00 0.00 0.00 83 1012.2
20260502004036 54 0 0.0 0.0 0.00 0.00 0.00 83 1012.1
20260502003539 54 0 0.0 0.0 0.00 0.00 0.00 82 1012.0
20260502003054 54 0 0.0 0.0 0.00 0.00 0.00 82 1011.7
20260502002535 54 0 0.0 0.0 0.00 0.00 0.00 82 1011.8
20260502002036 54 0 0.0 0.0 0.00 0.00 0.00 82 1011.8
20260502001622 55 0 0.0 0.0 0.00 0.00 0.00 81 1011.8
20260502001035 55 0 0.0 3.0 0.00 0.00 0.00 81 1011.6
20260502000535 55 0 0.0 3.0 0.00 0.00 0.00 81 1011.8
20260502000045 55 0 0.0 3.0 0.00 0.00 0.00 80 1011.8
20260501235535 55 0 0.0 0.0 0.00 0.00 0.00 81 1011.8
20260501235035 55 0 0.0 2.0 0.00 0.00 0.00 81 1011.9
20260501234550 56 0 0.0 2.0 0.00 0.00 0.00 80 1011.8
20260501234036 56 0 0.0 0.0 0.00 0.00 0.00 80 1011.8
20260501233538 56 0 0.0 0.0 0.00 0.00 0.00 80 1011.8
20260501233050 56 0 0.0 0.0 0.00 0.00 0.00 80 1011.7
20260501232535 56 0 0.0 0.0 0.00 0.00 0.00 80 1011.8
20260501232035 56 0 0.0 0.0 0.00 0.00 0.00 79 1011.9
20260501231546 56 0 0.0 0.0 0.00 0.00 0.00 79 1011.6
20260501231035 56 0 0.0 0.0 0.00 0.00 0.00 78 1011.7
20260501230537 56 0 0.0 0.0 0.00 0.00 0.00 78 1011.6
20260501230049 56 0 0.0 0.0 0.00 0.00 0.00 78 1011.6
20260501225535 57 0 0.0 0.0 0.00 0.00 0.00 78 1011.7
20260501225035 57 0 0.0 0.0 0.00 0.00 0.00 77 1011.6
20260501224559 57 0 0.0 0.0 0.00 0.00 0.00 78 1011.6
20260501224038 57 0 0.0 0.0 0.00 0.00 0.00 79 1011.9
20260501223535 57 0 0.0 0.0 0.00 0.00 0.00 77 1012.0
20260501223043 57 0 0.0 0.0 0.00 0.00 0.00 78 1012.2
20260501222536 56 0 0.0 0.0 0.00 0.00 0.00 77 1012.1
20260501222036 56 0 0.0 2.0 0.00 0.00 0.00 77 1012.2